Time,TemperatureF,DewpointF,PressureIn,WindDirection,WindDirectionDegrees,WindSpeedMPH,WindSpeedGustMPH,Humidity,HourlyPrecipIn,Conditions,Clouds,dailyrainin,SoftwareType,DateUTC
2015-04-25 00:02:00,49.1,42.3,29.93,East,90,2.0,2.7,77,0.00,,,0.00,meteobridge,2015-04-25 04:02:00,
2015-04-25 00:07:00,49.1,42.3,29.93,East,90,0.0,0.0,77,0.00,,,0.00,meteobridge,2015-04-25 04:07:00,
2015-04-25 00:12:00,49.1,42.3,29.93,East,90,2.7,2.7,77,0.00,,,0.00,meteobridge,2015-04-25 04:12:00,
2015-04-25 00:17:00,49.1,42.3,29.94,ESE,112,3.6,5.1,77,0.00,,,0.00,meteobridge,2015-04-25 04:17:00,
2015-04-25 00:22:00,49.1,43.2,29.94,ESE,112,4.7,-999.0,80,-99.99,,,0.00,Acu-Link.com,2015-04-25 04:22:00,
2015-04-25 00:27:00,49.3,42.1,29.93,ESE,112,4.0,5.1,76,0.00,,,0.00,meteobridge,2015-04-25 04:27:00,
2015-04-25 00:32:00,49.3,42.1,29.94,East,90,1.1,2.0,76,0.00,,,0.00,meteobridge,2015-04-25 04:32:00,
2015-04-25 00:38:00,49.3,42.4,29.93,East,90,4.7,4.7,77,0.00,,,0.00,meteobridge,2015-04-25 04:38:00,
2015-04-25 00:43:00,49.1,42.6,29.92,NE,45,4.7,4.7,78,0.00,,,0.00,meteobridge,2015-04-25 04:43:00,
2015-04-25 00:48:00,49.1,42.8,29.91,East,90,3.6,5.1,79,0.00,,,0.00,meteobridge,2015-04-25 04:48:00,
2015-04-25 00:53:00,49.1,42.8,29.91,ESE,112,6.3,6.3,79,0.00,,,0.00,meteobridge,2015-04-25 04:53:00,
2015-04-25 00:59:00,49.1,41.5,29.91,ESE,112,3.6,5.6,75,0.00,,,0.00,meteobridge,2015-04-25 04:59:00,
2015-04-25 01:04:00,49.1,41.9,29.92,ESE,112,2.0,2.7,76,0.00,,,0.00,meteobridge,2015-04-25 05:04:00,
2015-04-25 01:09:00,49.1,42.6,29.91,East,90,1.6,2.0,78,0.00,,,0.00,meteobridge,2015-04-25 05:09:00,
2015-04-25 01:14:00,48.7,42.3,29.92,East,90,2.0,2.0,78,0.00,,,0.00,meteobridge,2015-04-25 05:14:00,
2015-04-25 01:20:00,48.7,42.3,29.92,East,90,0.0,0.0,78,0.00,,,0.00,meteobridge,2015-04-25 05:20:00,
2015-04-25 01:25:00,48.6,42.1,29.92,ESE,112,3.6,3.6,78,0.00,,,0.00,meteobridge,2015-04-25 05:25:00,
2015-04-25 01:30:00,48.6,42.1,29.93,ESE,112,1.6,3.1,78,0.00,,,0.00,meteobridge,2015-04-25 05:30:00,
2015-04-25 01:35:00,49.1,42.6,29.93,ESE,112,4.7,5.1,78,0.00,,,0.00,meteobridge,2015-04-25 05:35:00,
2015-04-25 01:40:00,48.6,42.1,29.92,East,90,3.1,4.7,78,0.00,,,0.00,meteobridge,2015-04-25 05:40:00,
2015-04-25 01:45:00,48.6,42.3,29.91,East,90,3.1,4.7,79,0.00,,,0.00,meteobridge,2015-04-25 05:45:00,
2015-04-25 01:50:00,48.6,42.3,29.91,ESE,112,3.1,4.7,79,0.00,,,0.00,meteobridge,2015-04-25 05:50:00,
2015-04-25 01:55:00,48.6,41.7,29.91,ESE,112,4.7,6.7,77,0.00,,,0.00,meteobridge,2015-04-25 05:55:00,
2015-04-25 02:01:00,48.7,41.2,29.91,East,90,7.2,7.2,75,0.00,,,0.00,meteobridge,2015-04-25 06:01:00,
2015-04-25 02:06:00,49.1,41.2,29.91,ESE,112,4.0,4.0,74,0.00,,,0.00,meteobridge,2015-04-25 06:06:00,
2015-04-25 02:11:00,49.1,41.5,29.91,East,90,3.1,4.0,75,0.00,,,0.00,meteobridge,2015-04-25 06:11:00,
2015-04-25 02:16:00,49.1,41.9,29.91,ENE,67,3.1,3.1,76,0.00,,,0.00,meteobridge,2015-04-25 06:16:00,
2015-04-25 02:21:00,48.7,42.3,29.91,East,90,4.0,4.0,78,0.00,,,0.00,meteobridge,2015-04-25 06:21:00,
2015-04-25 02:26:00,48.6,41.7,29.91,East,90,3.1,4.7,77,0.00,,,0.00,meteobridge,2015-04-25 06:26:00,
2015-04-25 02:32:00,48.6,41.7,29.91,ESE,112,4.0,4.7,77,0.00,,,0.00,meteobridge,2015-04-25 06:32:00,
2015-04-25 02:37:00,48.6,41.7,29.91,ESE,112,4.0,5.6,77,0.00,,,0.00,meteobridge,2015-04-25 06:37:00,
2015-04-25 02:42:00,48.6,41.4,29.90,ESE,112,5.1,5.1,76,0.00,,,0.00,meteobridge,2015-04-25 06:42:00,
2015-04-25 02:47:00,49.1,41.2,29.91,ESE,112,4.7,6.7,74,0.00,,,0.00,meteobridge,2015-04-25 06:47:00,
2015-04-25 02:52:00,49.1,41.2,29.90,ESE,112,5.6,6.7,74,0.00,,,0.00,meteobridge,2015-04-25 06:52:00,
2015-04-25 02:57:00,49.3,41.4,29.91,ESE,112,6.7,6.7,74,0.00,,,0.00,meteobridge,2015-04-25 06:57:00,
2015-04-25 03:02:00,49.1,41.2,29.91,ESE,112,5.6,6.7,74,0.00,,,0.00,meteobridge,2015-04-25 07:02:00,
2015-04-25 03:07:00,49.1,41.2,29.91,ESE,112,5.6,5.6,74,0.00,,,0.00,meteobridge,2015-04-25 07:07:00,
2015-04-25 03:12:00,49.1,40.5,29.91,ESE,112,3.6,5.6,72,0.00,,,0.00,meteobridge,2015-04-25 07:12:00,
2015-04-25 03:22:00,49.1,41.5,29.91,East,90,4.0,4.0,75,0.00,,,0.00,meteobridge,2015-04-25 07:22:00,
2015-04-25 03:27:00,48.7,41.5,29.90,ENE,67,3.1,3.6,76,0.00,,,0.00,meteobridge,2015-04-25 07:27:00,
2015-04-25 03:33:00,48.6,42.1,29.90,ENE,67,2.7,2.7,78,0.00,,,0.00,meteobridge,2015-04-25 07:33:00,